Volver al catálogo

COSMOS 2251 DEB

ActivoLEO
NORAD 33920·DEBRIS·🇷🇺 Russia

Lanzado Jun 16, 1993 desde Plesetsk Cosmodrome

Loading…

Próximos Pases (próximas 24 horas)

TLE

ActualizadoSource: Space-Track

Época: Sep 14, 2026, 02:14 UTC

1 33920U 93036DZ  26257.09342235  .00003878  00000-0  77678-3 0  9992
2 33920  74.0582 133.4656 0032732  75.3904 285.0888 14.61782272921346

Sigue COSMOS 2251 DEB en tiempo real con AllMySat

Download on the App Store